When you browse on this site, cookies collect data to enhance your experience and personalize the content and advertising you see.
Visit our Privacy Policy to learn more. By continuing to use the site, you agree to this use of cookies and data.
  • Em Portugal
  • Lista de países
  • Para 7 dias
  • Temperatura da água
  • Mapas de satélite
  • Mapa do tempo
  • Widgets de tempo
  • user-avatar
    Iniciar Sessão

    Previsão horária em Lominskoe

    Hoje, 26 Abril, Sexta-feira

    Tempo Temperatura Precipitação Vento Pressão Humidade
    00:00 +12°C° 0 mm 0 m/s 742 mmHg 49%
    01:00 +12°C° 0 mm 0 m/s 742 mmHg 50%
    02:00 +12°C° 0 mm 0 m/s 742 mmHg 51%
    03:00 +11°C° 0 mm 0 m/s 742 mmHg 52%
    04:00 +11°C° 0 mm 0 m/s 742 mmHg 53%
    05:00 +11°C° 0 mm 0 m/s 741 mmHg 54%
    06:00 +14°C° 0 mm 1 m/s 742 mmHg 50%
    07:00 +16°C° 0 mm 1 m/s 742 mmHg 46%
    08:00 +19°C° 0 mm 1 m/s 742 mmHg 42%
    09:00 +21°C° 0 mm 1 m/s 741 mmHg 38%
    10:00 +21°C° 0 mm 2 m/s 741 mmHg 33%
    11:00 +24°C° 0 mm 2 m/s 741 mmHg 28%
    12:00 +24°C° 0 mm 2 m/s 741 mmHg 28%
    13:00 +24°C° 0 mm 2 m/s 741 mmHg 27%
    14:00 +24°C° 0 mm 2 m/s 740 mmHg 27%
    15:00 +23°C° 0 mm 2 m/s 740 mmHg 31%
    16:00 +23°C° 0 mm 1 m/s 740 mmHg 35%
    17:00 +22°C° 0 mm 1 m/s 739 mmHg 39%
    18:00 +20°C° 0 mm 1 m/s 739 mmHg 44%
    19:00 +18°C° 0 mm 1 m/s 739 mmHg 48%
    20:00 +16°C° 0 mm 1 m/s 739 mmHg 53%
    21:00 +15°C° 0 mm 1 m/s 738 mmHg 55%
    22:00 +14°C° 0 mm 1 m/s 738 mmHg 57%
    23:00 +13°C° 0 mm 1 m/s 738 mmHg 59%

    Amanhã, 27 Abril, Sábado

    Tempo Temperatura Precipitação Vento Pressão Humidade
    00:00 +13°C° 0 mm 1 m/s 738 mmHg 62%
    01:00 +12°C° 0 mm 2 m/s 737 mmHg 64%
    02:00 +12°C° 0 mm 2 m/s 737 mmHg 67%
    03:00 +10°C° 0 mm 2 m/s 737 mmHg 69%
    04:00 +10°C° 0 mm 2 m/s 736 mmHg 70%
    05:00 +10°C° 0 mm 2 m/s 736 mmHg 72%
    06:00 +13°C° 0 mm 2 m/s 736 mmHg 66%
    07:00 +14°C° 0 mm 2 m/s 736 mmHg 60%
    08:00 +16°C° 0 mm 2 m/s 736 mmHg 54%
    09:00 +18°C° 0 mm 2 m/s 735 mmHg 48%
    10:00 +20°C° 0 mm 2 m/s 735 mmHg 43%
    11:00 +21°C° 0 mm 2 m/s 735 mmHg 37%
    12:00 +23°C° 0 mm 2 m/s 735 mmHg 36%
    13:00 +23°C° 0 mm 2 m/s 734 mmHg 35%
    14:00 +24°C° 0 mm 2 m/s 734 mmHg 34%
    15:00 +23°C° 0 mm 2 m/s 734 mmHg 39%
    16:00 +21°C° 0 mm 2 m/s 733 mmHg 44%
    17:00 +20°C° 0 mm 2 m/s 733 mmHg 48%
    18:00 +18°C° 0.3 mm 2 m/s 733 mmHg 57%
    19:00 +16°C° 0.3 mm 2 m/s 733 mmHg 66%
    20:00 +15°C° 0.3 mm 2 m/s 733 mmHg 75%
    21:00 +14°C° 0.4 mm 2 m/s 733 mmHg 79%
    22:00 +13°C° 0.4 mm 2 m/s 733 mmHg 82%
    23:00 +12°C° 0.4 mm 2 m/s 734 mmHg 85%

    Depois de amanhã, 28 Abril, Domingo

    Tempo Temperatura Precipitação Vento Pressão Humidade
    00:00 +11°C° 0 mm 3 m/s 734 mmHg 86%
    01:00 +10°C° 0 mm 3 m/s 734 mmHg 87%
    02:00 +10°C° 0 mm 3 m/s 735 mmHg 88%
    03:00 +8°C° 0 mm 4 m/s 735 mmHg 88%
    04:00 +7°C° 0 mm 4 m/s 736 mmHg 87%
    05:00 +7°C° 0 mm 4 m/s 736 mmHg 86%
    06:00 +7°C° 0 mm 4 m/s 737 mmHg 81%
    07:00 +7°C° 0 mm 4 m/s 738 mmHg 76%
    08:00 +7°C° 0 mm 4 m/s 739 mmHg 71%
    09:00 +7°C° 0 mm 4 m/s 739 mmHg 64%
    10:00 +8°C° 0 mm 4 m/s 740 mmHg 57%
    11:00 +8°C° 0 mm 4 m/s 740 mmHg 49%
    12:00 +10°C° 0 mm 4 m/s 741 mmHg 44%
    13:00 +10°C° 0 mm 4 m/s 741 mmHg 38%
    14:00 +11°C° 0 mm 4 m/s 741 mmHg 33%
    15:00 +11°C° 0 mm 4 m/s 741 mmHg 32%
    16:00 +10°C° 0 mm 4 m/s 741 mmHg 32%
    17:00 +10°C° 0 mm 4 m/s 741 mmHg 32%
    18:00 +7°C° 0 mm 4 m/s 742 mmHg 37%
    19:00 +7°C° 0 mm 3 m/s 742 mmHg 42%
    20:00 +5°C° 0 mm 2 m/s 743 mmHg 47%
    21:00 +4°C° 0 mm 2 m/s 743 mmHg 51%
    22:00 +3°C° 0 mm 2 m/s 744 mmHg 55%
    23:00 +3°C° 0 mm 2 m/s 744 mmHg 59%

    29 Abril, Segunda-feira

    Tempo Temperatura Precipitação Vento Pressão Humidade
    00:00 +2°C° 0 mm 2 m/s 744 mmHg 62%
    01:00 +1°C° 0 mm 2 m/s 744 mmHg 65%
    02:00 +1°C° 0 mm 2 m/s 745 mmHg 69%
    03:00 -1°C° 0 mm 2 m/s 745 mmHg 68%
    04:00 -1°C° 0 mm 2 m/s 745 mmHg 68%
    05:00 -1°C° 0 mm 2 m/s 745 mmHg 67%
    06:00 +1°C° 0 mm 2 m/s 745 mmHg 58%
    07:00 +2°C° 0 mm 3 m/s 746 mmHg 49%
    08:00 +4°C° 0 mm 3 m/s 746 mmHg 40%
    09:00 +5°C° 0 mm 3 m/s 746 mmHg 37%
    10:00 +7°C° 0 mm 2 m/s 746 mmHg 33%
    11:00 +9°C° 0 mm 2 m/s 746 mmHg 30%
    12:00 +10°C° 0 mm 2 m/s 745 mmHg 28%
    13:00 +10°C° 0 mm 2 m/s 745 mmHg 27%
    14:00 +12°C° 0 mm 2 m/s 744 mmHg 25%
    15:00 +12°C° 0 mm 2 m/s 744 mmHg 26%
    16:00 +12°C° 0 mm 2 m/s 743 mmHg 26%
    17:00 +11°C° 0 mm 1 m/s 743 mmHg 27%
    18:00 +10°C° 0 mm 1 m/s 743 mmHg 33%
    19:00 +8°C° 0 mm 1 m/s 743 mmHg 39%
    20:00 +6°C° 0 mm 1 m/s 743 mmHg 44%
    21:00 +5°C° 0 mm 1 m/s 743 mmHg 47%
    22:00 +4°C° 0 mm 1 m/s 743 mmHg 49%
    23:00 +3°C° 0 mm 1 m/s 743 mmHg 52%

    30 Abril, Terça-feira

    Tempo Temperatura Precipitação Vento Pressão Humidade
    00:00 +3°C° 0 mm 1 m/s 742 mmHg 53%
    01:00 +3°C° 0 mm 1 m/s 742 mmHg 54%
    02:00 +3°C° 0 mm 1 m/s 742 mmHg 55%
    03:00 +3°C° 0 mm 1 m/s 742 mmHg 56%
    04:00 +3°C° 0 mm 1 m/s 742 mmHg 56%
    05:00 +3°C° 0 mm 1 m/s 742 mmHg 57%
    06:00 +5°C° 0 mm 1 m/s 742 mmHg 51%
    07:00 +7°C° 0 mm 1 m/s 742 mmHg 45%
    08:00 +8°C° 0 mm 0 m/s 741 mmHg 39%
    09:00 +10°C° 0 mm 0 m/s 741 mmHg 36%
    10:00 +13°C° 0 mm 1 m/s 741 mmHg 32%
    11:00 +14°C° 0 mm 1 m/s 741 mmHg 29%
    12:00 +14°C° 0 mm 1 m/s 741 mmHg 29%
    13:00 +14°C° 0 mm 1 m/s 740 mmHg 29%
    14:00 +14°C° 0 mm 1 m/s 740 mmHg 29%
    15:00 +13°C° 0 mm 1 m/s 739 mmHg 31%
    16:00 +13°C° 0 mm 2 m/s 739 mmHg 33%
    17:00 +12°C° 0 mm 2 m/s 739 mmHg 34%
    18:00 +10°C° 0 mm 2 m/s 739 mmHg 41%
    19:00 +9°C° 0 mm 1 m/s 738 mmHg 47%
    20:00 +8°C° 0 mm 1 m/s 738 mmHg 53%
    21:00 +7°C° 0 mm 1 m/s 738 mmHg 54%
    22:00 +7°C° 0 mm 1 m/s 738 mmHg 55%
    23:00 +6°C° 0 mm 1 m/s 738 mmHg 56%

    1 Maio, Quarta-feira

    Tempo Temperatura Precipitação Vento Pressão Humidade
    00:00 +6°C° 0 mm 1 m/s 738 mmHg 57%
    01:00 +6°C° 0 mm 1 m/s 738 mmHg 57%
    02:00 +5°C° 0 mm 1 m/s 738 mmHg 58%
    03:00 +5°C° 0 mm 1 m/s 737 mmHg 59%
    04:00 +5°C° 0 mm 1 m/s 737 mmHg 59%
    05:00 +5°C° 0 mm 1 m/s 737 mmHg 60%
    06:00 +7°C° 0 mm 1 m/s 737 mmHg 55%
    07:00 +9°C° 0 mm 1 m/s 737 mmHg 49%
    08:00 +11°C° 0 mm 1 m/s 736 mmHg 43%
    09:00 +12°C° 0 mm 2 m/s 736 mmHg 39%
    10:00 +13°C° 0 mm 2 m/s 736 mmHg 36%
    11:00 +14°C° 0 mm 2 m/s 735 mmHg 32%
    12:00 +14°C° 0 mm 2 m/s 735 mmHg 32%
    13:00 +14°C° 0 mm 2 m/s 734 mmHg 33%
    14:00 +13°C° 0 mm 3 m/s 734 mmHg 33%
    15:00 +13°C° 0 mm 3 m/s 733 mmHg 35%
    16:00 +12°C° 0 mm 3 m/s 732 mmHg 36%
    17:00 +12°C° 0 mm 3 m/s 732 mmHg 38%
    18:00 +10°C° 0 mm 2 m/s 731 mmHg 44%
    19:00 +9°C° 0 mm 2 m/s 731 mmHg 50%
    20:00 +8°C° 0 mm 1 m/s 731 mmHg 56%
    21:00 +7°C° 0 mm 2 m/s 730 mmHg 57%
    22:00 +7°C° 0 mm 2 m/s 730 mmHg 57%
    23:00 +7°C° 0 mm 3 m/s 729 mmHg 57%
    Mostrar mais